CAPE
81 367 746 1080 1089 1251 1226 1193 1261 1226 1388 1436 1313 1062 538 485 491 251 166 161 272 215 231 27 67 162 258 401 367 124 151 712 649 594 585 472 434 352 384 444 334 163 46
76 368 699 1144 1162 1132 1214 1319 1331 1208 1312 1216 1325 1243 587 295 419 370 172 267 277 499 517 195 101 179 282 516 596 616 521 282 174 174 90 181 350 504 444 340 300 137 18
92 510 972 1094 941 951 1211 1388 1298 1114 1113 1075 1147 1067 1237 538 368 239 232 226 380 447 597 644 524 382 600 714 288 172 161 46 0 0 0 28 234 283 314 204 54 0 0
97 478 491 1170 1035 1042 989 1173 1077 1163 1151 1202 1088 1191 1267 1094 647 602 354 335 489 657 990 931 672 801 831 784 343 28 0 1 0 0 0 0 0 0 0 0 17 3 0
103 199 412 355 690 1111 1276 1043 1088 1041 1105 1241 1214 1124 1175 1249 1203 965 818 690 571 462 612 842 852 923 974 745 573 251 0 0 1 0 0 0 0 0 0 0 0 0 0
61 58 56 365 404 422 754 1045 1025 857 982 1099 1105 1166 1074 1033 1170 1233 1243 1267 1151 846 408 821 937 920 931 754 288 414 212 0 0 0 0 0 0 0 0 0 0 0 0
0 0 0 4 152 349 379 390 382 739 833 851 836 1030 949 1039 1134 1212 1399 1341 1242 927 461 795 960 858 993 658 201 156 391 120 0 0 0 0 0 0 2 0 0 0 0
0 0 0 0 0 2 90 173 153 124 173 658 719 747 711 603 709 895 1051 1131 1195 969 926 675 1014 1146 1076 683 396 503 473 64 0 0 0 0 0 0 137 9 0 0 3
0 0 0 0 0 0 0 0 0 4 71 97 179 336 340 402 569 722 857 866 897 1030 1048 1049 1119 1161 1157 1065 863 633 370 25 0 0 0 0 0 0 113 137 7 0 1
0 0 0 0 0 0 0 0 0 0 0 2 60 115 116 53 57 246 230 325 530 796 954 993 997 984 1033 930 816 557 284 23 0 0 0 0 0 0 0 307 114 12 1
0 0 0 0 0 0 0 0 0 0 0 0 0 3 38 69 82 58 25 35 80 266 486 734 902 923 723 682 603 451 293 170 1 0 0 0 0 0 2 140 383 137 2
0 0 0 0 0 0 0 0 0 0 0 0 0 0 0 1 5 23 66 29 0 0 15 122 562 690 437 504 538 343 592 304 4 0 0 0 0 0 6 116 420 386 165
0 0 0 0 0 0 0 0 0 0 0 0 0 0 0 0 0 0 3 32 83 79 78 99 167 232 435 695 765 585 553 502 172 28 0 0 0 19 6 0 178 776 394
0 0 0 0 0 0 0 0 0 0 0 0 0 0 0 0 0 0 0 0 13 7 55 148 240 292 335 399 463 419 445 531 456 235 104 17 30 73 99 109 48 504 716
0 0 0 0 0 0 0 0 0 0 0 0 0 0 0 0 0 0 0 0 0 1 28 46 63 128 229 326 302 416 443 486 490 434 277 134 56 99 194 211 173 145 381
0 0 0 0 0 0 0 0 0 0 0 0 0 0 0 0 0 0 0 0 0 0 1 34 48 94 156 206 461 435 371 369 434 424 396 322 169 113 163 280 335 254 206
0 0 0 0 0 0 0 0 0 0 0 0 0 0 1 5 6 4 4 1 3 7 9 23 55 36 78 75 96 466 491 663 461 309 303 327 182 147 117 218 346 332 386
0 0 0 0 0 0 0 0 0 0 0 0 1 1 3 1 2 4 6 6 18 23 16 18 64 119 69 125 89 147 359 239 543 378 286 393 350 236 164 110 221 453 490
0 0 0 0 0 0 0 0 0 0 0 0 0 0 0 0 1 3 5 12 8 28 38 48 43 115 177 143 91 89 119 176 224 301 400 234 243 212 210 116 25 21 111
0 0 0 0 0 0 0 0 0 0 0 0 0 0 0 0 0 0 3 7 20 12 5 1 57 132 103 67 73 91 99 103 128 159 192 148 118 173 147 95 76 31 0
0 0 0 0 0 0 0 0 0 0 0 0 0 0 0 0 0 0 0 1 7 6 3 16 8 47 115 47 34 22 0 10 61 94 120 89 59 41 33 29 55 47 33
0 0 0 0 0 0 0 0 0 0 0 0 0 0 0 0 0 0 0 0 4 3 5 7 9 11 24 4 3 30 10 2 0 0 21 64 47 22 22 6 0 0 7
0 0 0 0 0 0 0 0 0 0 0 0 0 0 0 0 0 0 0 0 0 0 0 0 2 5 7 2 2 3 10 0 1 2 8 0 0 1 1 0 0 0 0
0 0 0 0 0 0 0 0 0 0 0 0 0 0 0 0 0 0 0 0 0 0 0 4 3 2 2 0 0 0 4 0 0 1 0 0 0 3 3 3 12 3 0
0 0 0 0 0 0 0 0 0 0 0 0 0 0 0 0 0 0 0 0 0 0 0 0 0 3 0 0 0 0 0 0 0 0 0 0 0 0 0 0 0 0 0
0 0 0 0 0 0 0 0 0 0 0 0 0 0 0 0 0 0 0 0 0 0 0 0 0 0 0 0 0 0 0 0 0 0 0 0 0 0 0 0 0 0 0
CIN
-159 -46 -14 -13 -18 -20 -13 -9 -9 -13 -7 -3 0 -4 -26 -25 -23 -82 -119 -122 -55 -85 -82 -253 -204 -126 -83 -61 -72 -158 -155 -38 -48 -52 -41 -54 -42 -70 -64 -51 -85 -134 -228
-181 -64 -15 -16 -15 -16 -15 -9 -8 -11 -8 -10 -6 0 -18 -64 -28 -33 -97 -53 -48 -10 -15 -100 -172 -106 -67 -32 -29 -31 -47 -107 -153 -160 -202 -162 -89 -41 -42 -77 -98 -164 -95
-236 -35 -20 -30 -22 -20 -17 -7 -8 -10 -9 -8 -6 -7 -1 -22 -42 -71 -59 -56 -13 -8 -4 -5 -29 -41 -10 -2 -70 -126 -144 -219 0 0 0 -151 -137 -109 -99 -135 -204 0 0
-251 -31 -27 -9 -8 -8 -12 -8 -13 -6 -6 -6 -7 -2 -1 -1 -7 -9 -30 -30 -4 0 0 -3 -5 -4 -2 -1 -42 -243 0 -306 0 0 0 0 0 0 0 0 -132 0 0
-231 -131 -21 -38 -13 -4 -2 -4 -5 -6 -3 -3 -3 -4 -2 0 0 -1 -1 -2 -5 -8 -7 -3 -4 -3 -4 0 -2 -51 0 0 -201 0 0 0 0 0 0 0 0 0 0
-275 -253 -255 -13 -10 -11 0 0 0 -2 -2 -2 -4 -2 -4 -4 -1 0 0 -1 -1 -3 -39 -6 -3 -4 -2 -1 -16 -1 -46 -82 0 0 0 0 0 0 0 0 0 0 0
0 0 0 -60 -114 -22 -12 -13 -18 0 -2 -2 -1 -1 -3 -4 -3 -1 -1 -1 -1 -2 -15 -4 -1 -2 -1 -4 -35 -26 -1 -60 0 0 0 0 0 0 0 0 0 0 0
0 0 0 0 0 -115 -186 -78 -90 -97 -68 -1 -2 -2 -2 -2 -1 0 -2 -2 -1 -1 -1 -3 0 0 0 -3 -9 0 -1 -82 0 0 0 0 0 0 -133 -16 0 0 0
0 0 0 0 0 0 0 0 0 -46 -97 -67 -33 -11 -16 -11 -5 -2 -1 -2 -1 -1 -2 -2 -1 -1 0 0 -1 -1 -3 -94 0 0 0 0 0 0 -101 -108 0 0 0
0 0 0 0 0 0 0 0 0 0 0 -2 -65 -21 -16 -51 -65 -13 -19 -12 -7 -4 -2 -1 -2 -1 -1 -2 -2 -5 -6 -68 0 0 0 0 0 0 0 -12 -81 -3 0
0 0 0 0 0 0 0 0 0 0 0 0 0 -2 -52 -47 -26 -35 -31 -27 -38 -12 -5 -2 -2 -2 -5 -3 -4 -5 -5 -5 0 0 0 0 0 0 -4 -23 -1 -38 -1
0 0 0 0 0 0 0 0 0 0 0 0 0 0 0 -2 0 -18 -26 -29 -2 0 -12 -25 -2 -5 -7 0 0 -3 0 -1 -20 0 0 0 0 0 -31 -21 -1 0 -22
0 0 0 0 0 0 0 0 0 0 0 0 0 0 0 0 0 -10 -12 -104 -32 -20 -22 -21 -12 -6 0 0 0 -1 0 0 -9 -23 0 0 -5 -40 -53 0 0 0 0
0 0 0 0 0 0 0 0 0 0 0 0 0 0 0 0 0 0 0 0 -26 -3 -57 -8 -5 -4 -9 -1 -1 -1 -2 0 0 -4 -19 -28 -48 -14 -4 -1 -4 0 0
0 0 0 0 0 0 0 0 0 0 0 0 0 0 0 0 0 0 0 0 0 -1 -18 -58 -34 -7 -7 -3 -6 -4 -2 -11 -8 -5 -9 -23 -14 -24 -3 0 0 0 0
0 0 0 0 0 0 0 0 0 0 0 0 0 0 0 0 0 0 0 0 0 0 -4 -19 -12 -16 0 -1 0 0 -7 -11 -10 -14 -15 -23 -30 -16 -23 -4 -2 -1 -2
0 0 0 0 0 0 0 0 0 0 0 0 0 0 0 0 0 0 0 0 0 0 0 -1 -1 -34 -10 -9 -1 0 0 0 -6 -29 -30 -31 -35 -31 -30 -22 -9 -12 -9
0 0 0 0 0 0 0 0 0 0 0 0 0 0 0 0 0 0 0 0 0 0 0 0 0 0 -15 -16 -5 -3 -1 -13 -3 -21 -29 -28 -41 -52 -47 -43 -46 -5 -8
0 0 0 0 0 0 0 0 0 0 0 0 0 0 0 0 0 0 0 -1 -2 -1 -1 0 0 0 0 -4 -11 -9 -5 -6 -3 -4 -6 -39 -33 -38 -26 -47 -53 -54 -92
0 0 0 0 0 0 0 0 0 0 0 0 0 0 0 0 0 0 0 -12 -6 -11 -10 -3 -2 0 -1 -10 -24 -30 0 0 0 -1 -5 -12 -28 -23 -24 -27 -28 -45 0
0 0 0 0 0 0 0 0 0 0 0 0 0 0 0 0 0 0 0 -24 -23 -12 -6 -9 -19 -18 0 0 -32 -8 -1 -22 -9 -2 0 -5 -16 -15 -12 -19 -16 -15 -38
0 0 0 0 0 0 0 0 0 0 0 0 0 0 0 0 0 0 0 0 -21 -18 -22 -16 -18 -27 -29 -17 -17 -18 0 0 0 0 0 -2 -8 -5 0 -1 0 0 -19
0 0 0 0 0 0 0 0 0 0 0 0 0 0 0 0 0 0 0 0 0 0 0 0 -15 -34 -38 -4 -42 0 -25 0 0 -1 -1 0 0 -1 -2 0 0 0 0
0 0 0 0 0 0 0 0 0 0 0 0 0 0 0 0 0 0 0 0 0 0 0 0 -6 -6 -4 -2 0 0 -2 0 0 0 -1 0 0 -29 0 -1 -1 -1 0
0 0 0 0 0 0 0 0 0 0 0 0 0 0 0 0 0 0 0 0 0 0 0 0 0 0 0 0 0 0 0 0 0 0 0 0 0 0 0 0 0 0 0
0 0 0 0 0 0 0 0 0 0 0 0 0 0 0 0 0 0 0 0 0 0 0 0 0 0 0 0 0 0 0 0 0 0 0 0 0 0 0 0 0 0 0
Wind_Speed
nan 6 10 9 14 14 13 12 12 12 14 15 16 15 16 20 19 18 18 17 16 15 14 nan nan 11 10 11 16 16 16 17 17 15 13 10 9 12 14 16 14 14 nan
nan 9 9 6 13 13 13 15 14 14 14 15 17 17 17 14 15 19 19 18 17 14 16 15 13 13 13 17 19 18 18 19 18 16 nan 13 13 15 17 15 14 15 nan
nan 13 17 9 13 13 14 14 15 14 14 15 15 14 17 16 15 14 13 14 17 18 19 17 15 15 17 20 20 20 20 nan nan nan nan nan 15 15 15 14 nan nan nan
nan 16 21 22 15 16 15 15 14 13 15 16 14 14 14 14 15 14 14 13 12 12 11 13 18 20 23 23 22 nan nan nan nan nan nan nan nan nan nan nan nan nan nan
20 18 21 25 25 19 18 16 17 16 16 16 15 14 14 15 14 14 14 14 14 14 12 13 14 21 22 25 24 23 nan nan nan nan nan nan nan nan nan nan nan nan nan
nan nan nan 25 26 26 26 26 23 19 17 17 15 15 16 17 17 17 16 17 17 17 16 15 19 23 23 22 20 20 25 nan nan nan nan nan nan nan nan nan nan nan nan
nan nan nan nan 28 28 28 30 29 28 26 22 19 16 17 17 18 19 20 21 21 21 20 20 22 23 25 23 21 20 21 23 nan nan nan nan nan nan nan nan nan nan nan
nan nan nan nan nan nan nan 33 32 32 31 30 27 25 23 23 22 21 22 22 23 23 23 23 24 25 25 24 21 21 23 nan nan nan nan nan nan nan 22 nan nan nan nan
nan nan nan nan nan nan nan nan nan nan nan nan 33 32 32 31 29 28 28 26 25 24 25 26 26 26 26 25 25 26 25 nan nan nan nan nan nan nan 24 26 nan nan nan
nan nan nan nan nan nan nan nan nan nan nan nan nan 32 31 nan nan 30 31 31 30 31 30 28 28 28 29 28 27 29 30 nan nan nan nan nan nan nan nan 21 28 nan nan
nan nan nan nan nan nan nan nan nan nan nan nan nan nan nan nan nan nan nan nan nan 30 31 31 31 32 33 33 33 34 35 33 nan nan nan nan nan nan nan 21 23 26 nan
nan nan nan nan nan nan nan nan nan nan nan nan nan nan nan nan nan nan nan nan nan nan nan 30 31 34 36 38 41 40 40 38 nan nan nan nan nan nan nan 24 22 25 27
nan nan nan nan nan nan nan nan nan nan nan nan nan nan nan nan nan nan nan nan nan nan nan nan 34 36 35 38 40 41 41 42 43 nan nan nan nan nan nan nan 27 26 27
nan nan nan nan nan nan nan nan nan nan nan nan nan nan nan nan nan nan nan nan nan nan nan 39 40 37 36 34 32 32 36 39 41 42 42 nan nan nan nan 29 nan 29 28
nan nan nan nan nan nan nan nan nan nan nan nan nan nan nan nan nan nan nan nan nan nan nan nan nan 46 43 41 39 37 36 38 37 38 37 38 nan nan 30 31 29 28 27
nan nan nan nan nan nan nan nan nan nan nan nan nan nan nan nan nan nan nan nan nan nan nan nan nan nan 53 51 48 47 44 43 40 41 40 38 35 31 27 29 30 28 26
nan nan nan nan nan nan nan nan nan nan nan nan nan nan nan nan nan nan nan nan nan nan nan nan nan nan nan nan nan 54 52 49 48 43 43 44 43 36 35 28 26 26 22
nan nan nan nan nan nan nan nan nan nan nan nan nan nan nan nan nan nan nan nan nan nan nan nan nan 61 nan 64 nan 59 57 54 51 50 50 48 50 47 39 32 29 24 28
nan nan nan nan nan nan nan nan nan nan nan nan nan nan nan nan nan nan nan nan nan nan nan nan nan 65 66 69 nan nan 58 57 52 56 54 55 52 48 48 43 nan nan 35
nan nan nan nan nan nan nan nan nan nan nan nan nan nan nan nan nan nan nan nan nan nan nan nan nan 62 66 nan nan nan nan 55 56 55 55 55 55 58 53 nan nan nan nan
nan nan nan nan nan nan nan nan nan nan nan nan nan nan nan nan nan nan nan nan nan nan nan nan nan nan 57 nan nan nan nan nan nan nan 56 nan nan nan nan nan nan nan nan
nan nan nan nan nan nan nan nan nan nan nan nan nan nan nan nan nan nan nan nan nan nan nan nan nan nan nan nan nan nan nan nan nan nan nan nan nan nan nan nan nan nan nan
nan nan nan nan nan nan nan nan nan nan nan nan nan nan nan nan nan nan nan nan nan nan nan nan nan nan nan nan nan nan nan nan nan nan nan nan nan nan nan nan nan nan nan
nan nan nan nan nan nan nan nan nan nan nan nan nan nan nan nan nan nan nan nan nan nan nan nan nan nan nan nan nan nan nan nan nan nan nan nan nan nan nan nan nan nan nan
nan nan nan nan nan nan nan nan nan nan nan nan nan nan nan nan nan nan nan nan nan nan nan nan nan nan nan nan nan nan nan nan nan nan nan nan nan nan nan nan nan nan nan
nan nan nan nan nan nan nan nan nan nan nan nan nan nan nan nan nan nan nan nan nan nan nan nan nan nan nan nan nan nan nan nan nan nan nan nan nan nan nan nan nan nan nan
Wind_Direction
nan 199 194 301 305 297 286 285 286 297 298 292 289 290 281 272 273 274 278 280 282 284 285 nan nan 286 275 277 276 270 270 258 256 258 259 262 292 307 286 281 273 268 nan
nan 194 189 307 305 302 296 293 300 300 300 299 294 293 293 296 289 277 275 275 273 274 283 281 284 287 283 276 277 272 267 264 267 262 nan 255 256 274 281 278 271 269 nan
nan 218 219 287 285 289 288 292 304 302 304 303 305 297 297 296 292 294 296 285 275 268 264 274 277 274 271 281 277 275 276 nan nan nan nan nan 262 259 264 263 nan nan nan
nan 238 236 236 262 277 280 277 283 290 298 301 304 306 310 309 300 298 295 293 288 282 271 257 286 285 276 278 280 nan nan nan nan nan nan nan nan nan nan nan nan nan nan
248 245 242 238 237 252 264 272 272 272 284 291 294 295 300 305 310 311 306 301 296 291 277 268 291 308 296 284 279 278 nan nan nan nan nan nan nan nan nan nan nan nan nan
nan nan nan 245 245 247 250 251 254 257 271 277 286 292 297 298 302 301 301 299 297 298 297 281 292 307 303 299 293 288 277 nan nan nan nan nan nan nan nan nan nan nan nan
nan nan nan nan 250 253 256 257 258 258 258 262 268 271 277 290 291 292 291 294 294 295 293 288 293 298 301 300 297 294 290 283 nan nan nan nan nan nan nan nan nan nan nan
nan nan nan nan nan nan nan 261 263 263 263 263 267 268 270 272 272 270 275 282 286 288 286 288 289 295 297 297 297 294 294 nan nan nan nan nan nan nan 266 nan nan nan nan
nan nan nan nan nan nan nan nan nan nan nan nan 269 269 267 265 267 269 268 269 272 273 277 280 285 287 291 293 293 290 285 nan nan nan nan nan nan nan 268 272 nan nan nan
nan nan nan nan nan nan nan nan nan nan nan nan nan 271 272 nan nan 272 269 270 265 265 268 271 273 273 280 285 283 285 285 nan nan nan nan nan nan nan nan 269 280 nan nan
nan nan nan nan nan nan nan nan nan nan nan nan nan nan nan nan nan nan nan nan nan 265 263 262 264 269 272 275 276 276 276 272 nan nan nan nan nan nan nan 278 278 285 nan
nan nan nan nan nan nan nan nan nan nan nan nan nan nan nan nan nan nan nan nan nan nan nan 268 266 267 266 264 267 274 272 271 nan nan nan nan nan nan nan 274 270 277 285
nan nan nan nan nan nan nan nan nan nan nan nan nan nan nan nan nan nan nan nan nan nan nan nan 275 275 274 273 270 268 271 272 269 nan nan nan nan nan nan nan 273 275 282
nan nan nan nan nan nan nan nan nan nan nan nan nan nan nan nan nan nan nan nan nan nan nan 273 271 270 271 273 278 280 277 273 272 269 268 nan nan nan nan 269 nan 268 274
nan nan nan nan nan nan nan nan nan nan nan nan nan nan nan nan nan nan nan nan nan nan nan nan nan 270 267 267 269 271 276 279 278 272 271 278 nan nan 274 272 269 268 265
nan nan nan nan nan nan nan nan nan nan nan nan nan nan nan nan nan nan nan nan nan nan nan nan nan nan 267 265 265 266 271 273 276 279 275 273 279 278 275 270 270 271 274
nan nan nan nan nan nan nan nan nan nan nan nan nan nan nan nan nan nan nan nan nan nan nan nan nan nan nan nan nan 263 264 266 269 273 273 270 269 275 276 271 269 271 267
nan nan nan nan nan nan nan nan nan nan nan nan nan nan nan nan nan nan nan nan nan nan nan nan nan 265 nan 264 nan 261 259 259 261 263 264 265 268 265 261 260 265 263 253
nan nan nan nan nan nan nan nan nan nan nan nan nan nan nan nan nan nan nan nan nan nan nan nan nan 263 259 258 nan nan 257 258 257 256 257 258 259 256 257 256 nan nan 254
nan nan nan nan nan nan nan nan nan nan nan nan nan nan nan nan nan nan nan nan nan nan nan nan nan 258 255 nan nan nan nan 249 252 255 254 255 254 253 254 nan nan nan nan
nan nan nan nan nan nan nan nan nan nan nan nan nan nan nan nan nan nan nan nan nan nan nan nan nan nan 263 nan nan nan nan nan nan nan 256 nan nan nan nan nan nan nan nan
nan nan nan nan nan nan nan nan nan nan nan nan nan nan nan nan nan nan nan nan nan nan nan nan nan nan nan nan nan nan nan nan nan nan nan nan nan nan nan nan nan nan nan
nan nan nan nan nan nan nan nan nan nan nan nan nan nan nan nan nan nan nan nan nan nan nan nan nan nan nan nan nan nan nan nan nan nan nan nan nan nan nan nan nan nan nan
nan nan nan nan nan nan nan nan nan nan nan nan nan nan nan nan nan nan nan nan nan nan nan nan nan nan nan nan nan nan nan nan nan nan nan nan nan nan nan nan nan nan nan
nan nan nan nan nan nan nan nan nan nan nan nan nan nan nan nan nan nan nan nan nan nan nan nan nan nan nan nan nan nan nan nan nan nan nan nan nan nan nan nan nan nan nan
nan nan nan nan nan nan nan nan nan nan nan nan nan nan nan nan nan nan nan nan nan nan nan nan nan nan nan nan nan nan nan nan nan nan nan nan nan nan nan nan nan nan nan